Flag for Ukraine Weather past 2 weeks in L'viv, Ukraine

37 °F


Feels Like: 33 °F
Forecast: 28 / 46 °F
Wind: 6 mph from Northeast

Location: L'Viv Airport

Current Time: Oct 9, 2015 at 3:45:58 AM

Latest Report: Oct 9, 2015 at 3:00 AM

Visibility: 10 mi

Pressure: 30.12 "Hg

Humidity: 65%

Dew point: 27 °F

Location of L'vivLocation

Historic Weather in L'viv — Graph


L'viv temperature yesterday

Maximum temperature yesterday: 50 °F (at 2:30 PM)
Minimum temperature yesterday: 36 °F (at 7:00 AM)
Average temperature yesterday: 43 °F

Past Weeks' High & Low Weather Summary

High79 °F (Sep 24, 3:30 PM)100% (Sep 25, 4:30 AM)30.54 "Hg (Sep 25, 4:30 AM)
Low32 °F (Oct 2, 5:00 AM)39% (Oct 2, 3:30 PM)29.89 "Hg (Sep 25, 3:30 AM)
Average53 °F79%30.19 "Hg
* Reported Sep 24 3:00 AM — Oct 9 3:00 AM, L'viv, Weather by CustomWeather, © 2015

Note: Actual official high and low records may vary slightly from our data, if they occured in-between our weather recording intervals... More about our weather records


L'viv weather history for previous 24 hours

Time TempWeatherWind HumidityBarometerVisibility
3:00 AM
Fri, Oct 9
37 °FClear.6 mph65%30.12 "Hg10 mi
2:30 AM37 °FClear.8 mph70%30.12 "Hg10 mi
2:00 AM37 °FClear.6 mph70%30.12 "Hg10 mi
1:30 AM39 °FClear.8 mph65%30.12 "Hg10 mi
1:00 AM41 °FClear.6 mph61%30.12 "Hg10 mi
12:30 AM41 °FClear.6 mph61%30.12 "Hg10 mi
12:00 AM43 °FClear.6 mph61%30.12 "Hg10 mi
11:30 PM
Thu, Oct 8
43 °FClear.6 mph61%30.12 "Hg10 mi
11:00 PM43 °FClear.6 mph61%30.12 "Hg10 mi
10:30 PM43 °FClear.6 mph66%30.12 "Hg10 mi
10:00 PM43 °FClear.6 mph66%30.12 "Hg10 mi
9:30 PM45 °FClear.6 mph57%30.12 "Hg10 mi
9:00 PM46 °FClear.6 mph53%30.12 "Hg10 mi
8:30 PM46 °FOvercast.8 mph53%30.12 "HgN/A
8:00 PM46 °FOvercast.8 mph53%30.12 "HgN/A
7:30 PM46 °FPartly sunny.6 mph53%30.12 "HgN/A
7:00 PM48 °FPartly sunny.8 mph50%30.12 "HgN/A
6:30 PM48 °FPartly sunny.8 mph50%30.12 "HgN/A
6:00 PM48 °FPartly sunny.10 mph50%30.12 "HgN/A
5:30 PM48 °FPartly sunny.10 mph50%30.12 "HgN/A
5:00 PM50 °FPartly sunny.10 mph47%30.12 "HgN/A
4:30 PM50 °FPartly sunny.10 mph47%30.12 "HgN/A
4:00 PM50 °FPartly sunny.10 mph47%30.12 "HgN/A
3:30 PM50 °FPartly sunny.10 mph47%30.12 "HgN/A
3:00 PM50 °FPartly sunny.10 mph50%30.12 "HgN/A
2:30 PM50 °FPartly sunny.10 mph47%30.12 "HgN/A
2:00 PM48 °FPartly sunny.13 mph50%30.15 "HgN/A
1:30 PM48 °FSunny.13 mph50%30.15 "Hg10 mi
1:00 PM46 °FPassing clouds.10 mph53%30.15 "HgN/A
12:30 PM46 °FPassing clouds.13 mph53%30.15 "HgN/A
12:00 PM45 °FPassing clouds.10 mph53%30.15 "HgN/A
11:30 AM45 °FPassing clouds.13 mph53%30.15 "HgN/A
11:00 AM43 °FPassing clouds.10 mph57%30.15 "HgN/A
10:30 AM41 °FSunny.10 mph61%30.15 "Hg10 mi
10:00 AM41 °FSunny.8 mph61%30.15 "Hg10 mi
9:30 AM39 °FSunny.8 mph61%30.15 "Hg10 mi
9:00 AM37 °FPassing clouds.8 mph65%30.12 "HgN/A
8:30 AM37 °FClear.8 mph65%30.12 "Hg10 mi
8:00 AM37 °FClear.8 mph65%30.12 "Hg10 mi
7:30 AM36 °FClear.8 mph70%30.12 "Hg10 mi
7:00 AM36 °FClear.8 mph75%30.12 "Hg10 mi
6:30 AM37 °FClear.8 mph70%30.12 "Hg10 mi
6:00 AM37 °FClear.10 mph70%30.12 "Hg10 mi
5:30 AM37 °FClear.8 mph70%30.12 "Hg10 mi
5:00 AM37 °FClear.8 mph70%30.12 "Hg10 mi
4:30 AM39 °FClear.8 mph65%30.12 "Hg10 mi
4:00 AM39 °FClear.8 mph65%30.12 "Hg10 mi
3:30 AM39 °FClear.8 mph65%30.15 "Hg10 mi
3:00 AM39 °FClear.10 mph70%30.15 "Hg10 mi
Weather by CustomWeather, © 2015

See weather overviewHow to use our weather pages